星链-6254 (STARLINK-6254 )

导读 | 星芒AI

STARLINK-6254 是 SpaceX Starlink 项目中的一颗低轨通信卫星,属于第六批发射的星链卫星群。该卫星部署在约 550 公里的轨道高度,旨在为全球用户提供高速互联网服务。作为星链网络的一部分,STARLINK-6254 采用先进推进系统和激光通信技术,提升网络稳定性和数据传输效率。其运行有助于扩大偏远地区的网络覆盖,推动全球互联网普及。

基本信息
目录编号:
57090
目录名称:
STARLINK-6254
国际标识:
2023-088AU
轨道中心:
EARTH
卫星名称:
星链-6254
卫星全名:
星链-6254 (STARLINK-6254 )
卫星状态:
在轨 (已飞行913 天)
发射日期:
2023-06-22 UTC
国别 :
美国 (US)
星等 :
--
轨道信息
数据来源 国际轨道数据 AOE轨道数据
星历时间 2025-12-21T20:46:39+0800
8小时前
查看轨道信息
2025-12-17T16:00:00+0800
4天前
查看轨道信息
半长轴 6937.273km 6937.205km
偏心率 0.0001232 0.000162
轨道倾角 43.002° 43.008°
近地点辐角 262.449° 335.639°
升交点赤经 159.080° 181.913°
平近点角 97.622° 325.135°
近地点 558.281km 557.946km
远地点 559.991km 560.194km
周期 95.839分钟 95.838分钟
每日圈数 15.025178 15.0254
详细信息
固有亮度:
5
最大亮度:
2.4
卫星平台:
Starlink v1.5
覆盖范围:
全球
运营商:
太空探索技术公司
运营商所在国:
美国
制造商(研发单位):
太空探索技术公司
制造商所在国:
美国
使用方式:
暂无
卫星简介
星链(Starlink)计划是由太空探索技术公司(SpaceX)提出的一个巨型低轨卫星互联网星座项目,计划在2019年至2024年间在太空搭建由约1.2万颗卫星组成的“星链”网络,其中1584颗将部署在地球上空550千米处的近地轨道,并从2020年开始工作。该卫星仍在工作。
2D轨道图
3D轨道图
轨道高度分析图
轨道倾角分析图
轨道综合分析图
查看轨道综合分析图